Location: Lamoine Observatory
(44.4551°N, 68.3470°W)
Time: 18:41:45
(UTC-04:00)

Daily predictions for brighter satellites

Satellite Brightness Start Highest point End
(mag) Time Altitude Azimuth Time Altitude Azimuth Time Altitude Azimuth
Cosmos 2228 3.4 20:34:56 10° N 20:39:14 49° ENE 20:43:31 10° SSE
COSMOS 2455 4.2 20:35:48 10° SSE 20:39:49 19° ESE 20:43:50 10° ENE
Cosmos 494 Rocket 4.0 20:35:11 10° S 20:40:10 57° ESE 20:45:12 10° NNE
Cosmos 1025 Rocket 3.5 20:38:42 10° SSW 20:43:03 66° W 20:47:26 10° N
H-2A R/B 4.1 20:41:36 10° ENE 20:43:05 11° NE 20:44:36 10° NE
Cosmos 2369 Rocket 3.9 20:39:52 10° N 20:44:02 20° NE 20:48:08 10° E
Cosmos 2219 Rocket 4.0 20:39:39 10° WSW 20:44:53 38° NW 20:50:08 10° NNE
Cosmos 1892 Rocket 3.7 20:42:32 10° S 20:46:59 87° W 20:51:29 10° N
Aureole 2 Rocket 3.1 20:43:55 10° S 20:47:38 39° ESE 20:51:03 10° NE
Cosmos 1939 Rocket 3.0 20:43:53 10° SSE 20:48:01 69° ENE 20:52:09 10° N
USA 186 3.9 20:48:07 10° SSW 20:50:26 21° W 20:52:39 10° NW
SL-16 R/B 2.2 20:45:28 10° SSW 20:51:06 82° ESE 20:56:48 10° NNE
SPOT 5 2.9 20:48:19 10° SSE 20:52:38 53° ENE 20:56:52 10° N
ARGOS 4.3 20:48:17 10° ESE 20:52:50 28° ENE 20:57:24 10° N
Cosmos 1666 2.7 20:51:24 10° N 20:55:18 70° E 20:59:11 10° SSE
Tsikada Rocket 4.4 20:51:40 10° SSE 20:57:45 47° E 21:03:49 10° NNE
Lacrosse 5 rocket 1.8 20:56:40 10° WSW 21:00:32 64° NW 21:04:35 10° NE
Lacrosse 5 3.8 21:00:25 10° W 21:04:58 32° NNW 21:09:31 10° NE
CZ-4 SHROUD 3.2 21:01:49 10° SSE 21:04:58 79° ENE 21:08:09 10° N
Meteor 1-23 Rocket 4.4 20:59:53 10° SSW 21:05:32 81° W 21:11:18 10° N
Cosmos 2285 Rocket 4.3 20:59:36 10° NNW 21:05:54 70° WSW 21:12:11 10° S
Cosmos 1743 4.4 21:03:09 10° NNW 21:06:38 33° W 21:10:05 10° SSW
Cosmos 1302 Rocket 4.1 21:04:40 10° NNW 21:09:56 82° WSW 21:15:11 10° SSE
MetOp-B 4.2 21:07:39 10° SSE 21:12:54 67° ENE 21:18:14 10° N
SL-8 R/B 4.2 21:09:26 10° W 21:14:15 62° NNW 21:19:04 10° ENE
SeaSat 1 2.6 21:10:21 10° SSE 21:15:13 76° WSW 21:20:11 10° NNW
Okean 2 4.1 21:12:40 10° SSW 21:16:47 57° W 21:20:56 10° N
UNK 4.3 21:11:45 10° NNE 21:17:05 61° ESE 21:22:39 10° S
CZ-4B R/B 3.7 21:13:01 10° NNE 21:17:56 50° E 21:22:57 10° S
Cosmos 1464 Rocket 4.4 21:12:34 10° NNW 21:18:38 64° W 21:24:41 10° S
Cosmos 1603 3.8 21:14:28 10° S 21:19:56 55° ESE 21:25:24 10° NNE
Terra 3.5 21:17:27 11° ESE 21:20:35 21° ENE 21:24:04 10° NNE
Timation 1 Rocket 4.4 21:14:46 10° NNW 21:20:49 83° WSW 21:26:08 13° SSE
Cosmos 2058 Rocket 4.4 21:17:00 10° NNW 21:21:04 38° W 21:25:06 10° SSW
APEX 4.1 21:18:25 10° NW 21:22:17 56° WSW 21:26:56 12° S
GRACE-1 3.9 21:20:20 10° N 21:23:14 84° W 21:25:44 13° S
GRACE-2 3.9 21:20:47 10° N 21:23:41 83° W 21:26:09 13° S
Cosmos 1515 4.4 21:23:52 17° SSE 21:26:20 36° E 21:29:55 10° NNE
Cosmos 1346 Rocket 4.3 21:27:33 17° ESE 21:28:42 19° E 21:31:29 10° NE
Cosmos 1602 Rocket 3.7 21:25:56 10° S 21:30:26 82° W 21:34:56 10° N
Cosmos 1461 3.1 21:27:28 10° NW 21:31:47 65° WSW 21:34:38 19° SSE
Cosmos 1825 Rocket 4.2 21:33:19 19° SSE 21:35:57 37° E 21:40:03 10° NNE
Cosmos 2034 Rocket 4.5 21:30:13 10° NNW 21:36:31 63° W 21:42:44 10° S
ATLAS 3B R/B 3.7 21:30:03 10° S 21:36:32 31° ESE 21:42:56 10° NE
Cosmos 1634 Rocket 4.2 21:32:50 10° N 21:38:53 55° ENE 21:43:13 19° SSE
Cosmos 1812 Rocket 3.6 21:34:52 10° N 21:39:16 82° W 21:42:44 16° S
Envisat 4.0 21:40:17 10° S 21:45:06 43° W 21:49:57 10° NNW
Cosmos 1943 3.7 21:41:51 17° SSE 21:45:40 38° ESE 21:50:53 10° NE
BREEZE-M DEB (TANK) 1.8 21:43:37 10° SW 21:47:04 63° SSE 21:48:16 22° ENE
USA 234 3.4 21:43:14 19° SE 21:48:07 65° SW 21:54:40 10° NW
USA 245 4.3 21:42:59 15° SSE 21:48:08 84° WSW 21:53:29 10° NNW
Cosmos 407 Rocket 4.5 21:47:15 22° SE 21:49:16 28° E 21:53:42 10° NE
YAOGAN 6 3.0 21:50:25 20° S 21:52:52 61° W 21:56:35 10° NNW
USA 81 4.0 21:48:56 10° N 21:54:14 75° E 21:57:42 22° SSE
Cosmos 1943 Rocket 3.5 21:52:30 10° N 21:57:13 27° NE 22:00:44 15° ESE
Abrixas rocket 4.1 22:00:35 10° W 22:03:07 19° SW 22:03:38 19° SSW
Cosmos 2279 Rocket 4.3 21:58:37 10° N 22:04:42 51° ENE 22:08:07 26° SE
Cosmos 1766 4.0 22:01:45 10° N 22:05:32 39° ENE 22:06:44 31° ESE
Atlas Centaur 2 3.8 22:09:23 10° SW 22:16:05 29° S 22:18:15 26° SSE
CZ-4C R/B 3.6 22:15:26 30° S 22:17:29 69° WSW 22:21:37 10° NNW
Cosmos 1953 Rocket 3.5 22:18:28 31° S 22:20:32 83° E 22:24:59 10° N
H-2A R/B 1.9 22:19:21 33° SSE 22:21:36 78° ENE 22:26:40 10° N
SAR-Lupe-2 3.4 22:21:49 49° SSE 22:22:43 89° E 22:26:20 10° NNW
CZ-4 R/B 4.4 22:17:50 10° N 22:22:44 61° WNW 22:27:21 12° SSW
Cosmos 1992 Rocket 4.3 22:17:56 10° NNW 22:23:06 60° WSW 22:25:45 28° S
COSMOS 2455 3.0 22:19:03 10° SW 22:25:04 76° WNW 22:31:07 10° NNE
Cosmos 2369 Rocket 2.2 22:23:01 10° NNW 22:28:43 78° WSW 22:31:20 33° SSE
ARGOS 4.0 22:29:23 20° SSW 22:32:51 44° W 22:38:02 10° NNW
Geosat 4.3 22:31:58 10° NNE 22:37:00 69° WNW 22:41:59 10° SW
Spot 4 3.7 22:35:17 40° SSE 22:37:00 84° ENE 22:41:48 10° NNW
Cosmos 1953 2.7 22:33:22 10° N 22:37:14 46° ENE 22:37:47 43° ESE
DMSP B5D2-2 4.0 22:32:08 10° NNE 22:37:27 74° ESE 22:39:47 34° S
IGS 5A 3.4 22:36:44 47° S 22:37:54 84° W 22:42:05 10° NNW
Lacrosse 5 rocket 4.2 22:37:33 10° WNW 22:40:31 19° NNW 22:43:35 10° NNE
Cosmos 1190 Rocket 4.0 22:37:27 22° SSW 22:41:00 82° WNW 22:46:22 10° NNE
Cosmos 1805 3.8 22:38:04 10° N 22:41:50 42° ENE 22:42:15 40° E
Landsat 7 4.4 22:40:04 29° SSW 22:42:10 50° W 22:46:49 10° NNW
Cosmos-2242 3.0 22:39:41 10° N 22:44:06 71° E 22:45:05 51° SE
Spot 2 4.4 22:44:06 10° NNE 22:48:50 81° WNW 22:51:03 33° SSW
Cosmos 2263 4.2 22:44:26 10° NNW 22:50:03 73° WSW 22:52:07 40° S
COSMOS 2406 3.9 22:50:41 33° ESE 22:51:19 34° ESE 22:56:24 10° NE
Cosmos 1758 Rocket 4.2 22:53:08 29° SW 22:55:05 52° WNW 22:59:22 10° N
Lacrosse 4 Rocket 1.2 22:55:02 57° SSW 22:55:50 89° ESE 22:59:57 10° NNE
Cosmos 676 Rocket 3.9 22:54:57 37° SSW 22:57:09 84° ESE 23:02:31 10° NNE
SL-8 R/B 4.3 22:52:29 10° WNW 22:57:15 55° N 23:01:31 13° E
Terra 2.4 22:56:20 35° SSW 22:57:58 50° W 23:02:37 10° NNW
CARTOSAT-1 4.4 22:57:34 33° SW 22:58:50 42° W 23:02:58 10° NNW
Cosmos 1346 Rocket 4.3 23:03:05 21° WSW 23:04:53 32° WNW 23:08:26 10° N
ALOS 2 4.1 23:04:36 23° E 23:05:32 25° ENE 23:09:06 10° NNE
Cosmos 1340 4.4 23:06:45 22° ENE 23:06:45 22° ENE 23:09:07 10° NE
Cosmos 1092 Rocket 4.2 23:08:19 41° SSE 23:10:18 57° E 23:16:28 10° NNE
Cosmos 1140 Rocket 3.6 23:09:35 50° SE 23:10:24 55° ESE 23:15:33 10° NNE
Cosmos 1689 Rocket 4.4 23:18:28 19° ENE 23:18:28 19° ENE 23:20:26 10° NNE
Cosmos 1758 3.7 23:17:22 10° NNW 23:21:24 56° W 23:21:45 53° WSW
CZ-4C R/B 4.0 23:22:49 16° E 23:22:49 16° E 23:25:25 10° ENE
Cosmos 1707 4.0 23:22:36 30° ENE 23:22:36 30° ENE 23:25:33 10° NNE
Cosmos 1842 Rocket 3.4 23:19:04 10° N 23:23:28 86° WSW 23:23:51 74° S
Nadezhda 4 Rocket 4.0 23:21:22 40° S 23:23:50 86° W 23:30:14 10° N
Cosmos 1842 4.3 23:23:02 35° WSW 23:23:50 39° WNW 23:27:34 10° N
ATLAS 3B R/B 3.2 23:19:09 10° SW 23:26:51 69° NW 23:34:20 10° NE
SL-27 R/B 3.0 23:29:35 53° NNW 23:29:35 53° NNW 23:32:20 10° NNE
Meteor 2-5 Rocket 3.9 23:34:17 49° SE 23:35:33 61° E 23:41:17 10° NNE
Cosmos 2208 Rocket 3.9 23:32:15 10° NNW 23:37:27 79° WSW 23:38:18 62° S
Cosmos 1544 3.4 23:36:09 10° NNW 23:39:32 65° NW 23:39:32 65° NW
Cosmos 1943 Rocket 2.5 23:35:52 10° NW 23:41:13 51° WSW 23:42:15 45° SW
Cosmos 614 Rocket 3.9 23:43:39 63° SSE 23:44:14 69° ESE 23:49:26 10° NNE
CZ-4C R/B 3.9 23:48:57 44° N 23:48:57 44° N 23:51:16 10° NNW
CZ-4B R/B 2.2 23:50:30 53° NE 23:50:30 53° NE 23:53:39 10° N
